VOYAGER:2:PRINTED,ON:,27-APR-02:14:24:49:GROUP22
START_TIME,STOP_TIME,SECTOR,SCAN_DIR,PL01FLUX,PL01UNC,PL02FLUX,PL02UNC,PL03FLUX,PL03UNC,PL04FLUX,PL04UNC,PL05FLUX,PL05UNC
1989-08-26T23:53:35.110 ,1989-08-26 23:53:41.480 ,8,-1,316.,141.,241.,108.,104.,52.0,0.000E+00,0.000E+00,9.76,6.90
1989-08-26T23:53:42.290 ,1989-08-26 23:54:29.480 ,7,-1,230.,50.1,95.6,26.5,23.7,8.96,36.4,11.5,3.21,1.86
1989-08-26T23:54:30.290 ,1989-08-26 23:55:17.480 ,6,-1,439.,78.8,88.9,28.1,44.6,11.9,5.40,3.82,2.56,1.48
1989-08-26T23:55:18.290 ,1989-08-26 23:56:05.480 ,5,-1,223.,51.2,76.8,24.3,47.4,12.2,14.9,7.47,0.731,0.731
1989-08-26T23:56:06.290 ,1989-08-26 23:56:53.480 ,4,-1,246.,50.3,121.,29.2,33.5,10.6,29.7,9.89,5.07,2.27
1989-08-26T23:56:54.290 ,1989-08-26 23:57:41.480 ,3,-1,246.,52.5,96.4,26.7,36.2,10.9,16.6,6.79,8.68,3.07
1989-08-26T23:57:42.290 ,1989-08-26 23:58:29.480 ,2,-1,246.,50.3,121.,29.2,26.9,9.52,19.1,7.81,2.92,1.46
1989-08-26T23:58:29.480 ,1989-08-26 23:59:17.860 ,1,-1,249.,60.3,141.,37.8,25.8,11.5,10.4,5.99,15.4,4.28
1989-08-26T23:59:18.290 ,1989-08-26 23:00:05.480 ,1,1,302.,58.1,119.,29.6,36.6,11.0,14.2,6.34,7.71,3.15
1989-08-27T00:00:06.290 ,1989-08-27 24:00:53.480 ,2,1,188.,39.2,160.,30.8,33.6,10.6,5.40,3.82,3.25,1.88
1989-08-27T00:00:54.290 ,1989-08-27 00:01:41.480 ,3,1,263.,56.1,86.3,26.0,27.0,9.55,7.91,4.57,5.42,2.43
1989-08-27T00:01:42.290 ,1989-08-27 00:02:29.480 ,4,1,164.,39.7,94.0,25.1,30.3,10.1,25.0,8.82,6.51,2.66
1989-08-27T00:02:30.290 ,1989-08-27 00:03:17.480 ,5,1,176.,40.4,111.,27.0,26.9,9.52,23.0,8.13,10.8,3.59
1989-08-27T00:03:18.290 ,1989-08-27 00:04:05.480 ,6,1,221.,46.1,127.,29.2,30.8,10.3,26.9,9.49,4.34,2.17
1989-08-27T00:04:06.290 ,1989-08-27 00:04:53.480 ,7,1,305.,55.6,153.,32.7,50.4,13.0,20.1,8.22,2.56,1.48
1989-08-27T00:04:54.290 ,1989-08-27 00:05:59.040 ,8,1,337.,49.7,179.,30.3,88.5,14.7,57.5,12.3,5.68,2.15
1989-08-27T00:05:59.110 ,1989-08-27 00:06:29.480 ,8,-1,439.,87.9,167.,44.6,99.3,22.2,56.0,17.7,5.97,2.99
1989-08-27T00:06:30.290 ,1989-08-27 00:07:17.480 ,7,-1,273.,52.5,139.,31.1,33.6,10.6,18.3,7.49,5.07,2.27
1989-08-27T00:07:18.290 ,1989-08-27 00:08:05.480 ,6,-1,261.,53.3,110.,28.4,45.9,12.3,25.0,8.82,7.71,3.15
1989-08-27T00:08:06.290 ,1989-08-27 00:08:53.480 ,5,-1,294.,58.8,101.,27.9,27.0,9.54,24.2,8.56,9.30,3.52
1989-08-27T00:08:54.290 ,1989-08-27 00:09:41.480 ,4,-1,116.,30.0,112.,25.8,37.2,11.2,33.6,10.6,5.42,2.43
1989-08-27T00:09:42.290 ,1989-08-27 00:10:29.480 ,3,-1,358.,64.3,129.,31.3,43.4,12.0,20.1,8.22,3.25,1.88
1989-08-27T00:10:30.290 ,1989-08-27 00:11:17.480 ,2,-1,205.,44.6,114.,27.7,43.8,12.1,29.9,10.6,1.46,1.03
1989-08-27T00:11:17.480 ,1989-08-27 00:12:05.850 ,1,-1,505.,95.5,167.,44.5,25.8,11.5,15.4,8.89,1.89,1.33
1989-08-27T00:12:06.290 ,1989-08-27 00:12:53.480 ,1,1,460.,80.1,97.5,29.4,32.8,10.4,19.2,8.61,0.731,0.731
1989-08-27T00:12:54.290 ,1989-08-27 00:13:41.480 ,2,1,61.0,20.3,79.6,20.5,9.86,5.69,15.4,6.89,3.77,1.89
1989-08-27T00:13:42.290 ,1989-08-27 00:14:29.480 ,3,1,317.,61.0,109.,29.2,42.6,11.8,19.1,7.81,3.27,1.63
1989-08-27T00:14:30.290 ,1989-08-27 00:15:17.480 ,4,1,123.,28.9,158.,28.9,16.2,7.26,26.9,9.49,4.65,2.32
1989-08-27T00:15:18.290 ,1989-08-27 00:16:05.480 ,5,1,199.,45.6,92.6,25.7,33.1,10.5,17.4,7.79,1.46,1.03
1989-08-27T00:16:06.290 ,1989-08-27 00:16:53.480 ,6,1,240.,47.9,139.,30.4,30.3,10.1,25.0,8.82,6.51,2.66
1989-08-27T00:16:54.290 ,1989-08-27 00:17:41.480 ,7,1,158.,37.2,114.,26.9,27.2,9.60,33.6,10.6,4.43,1.98
1989-08-27T00:17:42.290 ,1989-08-27 00:18:47.040 ,8,1,228.,38.0,173.,28.1,67.1,12.9,48.5,11.1,7.61,2.88
1989-08-27T00:18:47.100 ,1989-08-27 00:19:17.480 ,8,-1,400.,81.7,174.,45.0,58.3,17.6,69.0,19.9,5.58,2.79
1989-08-27T00:19:18.290 ,1989-08-27 00:20:05.480 ,7,-1,205.,44.6,114.,27.7,75.7,15.5,20.6,7.79,9.30,3.52
1989-08-27T00:20:06.290 ,1989-08-27 00:20:53.480 ,6,-1,180.,40.3,122.,27.9,23.8,8.97,32.6,11.5,0.442,0.442
1989-08-27T00:20:54.290 ,1989-08-27 00:21:41.480 ,5,-1,200.,44.8,104.,27.0,48.9,12.6,23.0,8.67,4.34,2.17
1989-08-27T00:21:42.290 ,1989-08-27 00:22:29.480 ,4,-1,90.4,25.1,111.,24.3,33.6,10.6,23.0,8.13,10.8,3.59
1989-08-27T00:22:30.290 ,1989-08-27 00:23:17.480 ,3,-1,198.,42.2,134.,29.3,47.1,12.6,53.7,13.9,5.07,2.27
1989-08-27T00:23:18.290 ,1989-08-27 00:24:05.480 ,2,-1,177.,39.5,125.,28.0,56.0,13.6,15.8,6.46,10.8,3.43
1989-08-27T00:24:05.480 ,1989-08-27 00:24:53.850 ,1,-1,374.,81.6,128.,38.6,15.2,8.75,7.30,5.16,7.84,2.96
1989-08-27T00:24:54.290 ,1989-08-27 00:25:41.480 ,1,1,510.,80.6,140.,33.9,43.1,12.0,27.2,9.05,8.68,3.07
1989-08-27T00:25:42.290 ,1989-08-27 00:26:29.480 ,2,1,328.,65.5,83.2,26.3,41.7,11.6,22.0,8.33,5.07,2.27
1989-08-27T00:26:30.290 ,1989-08-27 00:27:17.480 ,3,1,263.,56.1,86.3,26.0,44.7,11.9,4.79,3.38,5.07,2.27
1989-08-27T00:27:18.290 ,1989-08-27 00:28:05.480 ,4,1,259.,50.9,137.,30.5,36.9,11.1,11.8,5.89,4.65,2.32
1989-08-27T00:28:06.290 ,1989-08-27 00:28:53.480 ,5,1,311.,60.9,102.,28.3,27.0,9.54,25.0,8.82,7.71,3.15
1989-08-27T00:28:54.290 ,1989-08-27 00:29:41.480 ,6,1,238.,53.3,78.9,24.9,55.3,13.0,12.6,5.65,14.3,4.51
1989-08-27T00:29:42.290 ,1989-08-27 00:30:29.480 ,7,1,359.,70.4,78.5,26.1,23.4,8.83,10.8,5.40,7.71,3.15
1989-08-27T00:30:30.290 ,1989-08-27 00:31:35.040 ,8,1,144.,29.3,124.,23.5,70.4,13.1,71.9,14.4,3.09,1.54
1989-08-27T00:31:35.100 ,1989-08-27 00:32:05.480 ,8,-1,308.,70.7,144.,40.0,88.5,20.8,41.1,15.5,2.79,1.97
1989-08-27T00:32:06.290 ,1989-08-27 00:32:53.480 ,7,-1,398.,68.3,138.,32.5,30.5,10.2,10.8,5.40,7.71,3.15
1989-08-27T00:32:54.290 ,1989-08-27 00:33:41.480 ,6,-1,207.,42.3,155.,31.1,30.3,10.1,21.3,8.04,5.66,2.31
1989-08-27T00:33:42.290 ,1989-08-27 00:34:29.480 ,5,-1,133.,35.5,79.1,22.8,20.2,8.23,7.06,4.08,10.9,3.87
1989-08-27T00:34:30.290 ,1989-08-27 00:35:17.480 ,4,-1,158.,37.2,114.,26.9,43.6,12.1,30.8,10.3,3.77,1.89
1989-08-27T00:35:18.290 ,1989-08-27 00:36:05.480 ,3,-1,228.,47.4,122.,28.8,56.0,13.6,25.8,9.12,5.42,2.43
1989-08-27T00:36:06.290 ,1989-08-27 00:36:53.480 ,2,-1,128.,33.0,98.7,24.7,33.4,10.6,16.2,6.62,12.6,4.20
1989-08-27T00:36:53.480 ,1989-08-27 00:37:41.850 ,1,-1,571.,110.,120.,40.1,62.7,17.4,15.8,7.91,10.8,3.43
1989-08-27T00:37:42.290 ,1989-08-27 00:38:29.480 ,1,1,376.,65.5,140.,33.0,52.7,13.2,45.6,12.6,5.07,2.27
1989-08-27T00:38:30.290 ,1989-08-27 00:39:17.480 ,2,1,109.,29.1,104.,24.5,30.5,10.2,8.32,4.80,3.77,1.89
1989-08-27T00:39:18.290 ,1989-08-27 00:40:05.480 ,3,1,213.,45.5,120.,28.4,40.0,11.6,29.3,8.84,0.000E+00,0.000E+00
1989-08-27T00:40:06.290 ,1989-08-27 00:40:53.480 ,4,1,167.,39.3,105.,26.4,33.7,10.7,17.1,6.99,9.30,3.52
1989-08-27T00:40:54.290 ,1989-08-27 00:41:41.480 ,5,1,277.,55.4,111.,28.7,33.4,10.5,28.7,9.57,6.51,2.66
1989-08-27T00:41:42.290 ,1989-08-27 00:42:29.480 ,6,1,103.,27.5,112.,25.1,30.3,10.1,16.6,6.79,8.68,3.07
1989-08-27T00:42:30.290 ,1989-08-27 00:43:17.480 ,7,1,216.,43.2,162.,31.7,43.7,12.1,23.0,8.67,4.34,2.17
1989-08-27T00:43:18.290 ,1989-08-27 00:44:23.040 ,8,1,249.,39.8,186.,29.3,90.6,14.9,61.2,13.3,2.66,1.54
1989-08-27T00:44:23.100 ,1989-08-27 00:44:53.480 ,8,-1,308.,67.1,186.,43.8,62.2,17.9,30.9,12.6,5.58,2.79
1989-08-27T00:44:54.290 ,1989-08-27 00:45:41.480 ,7,-1,198.,42.2,134.,29.3,40.2,11.6,14.7,6.59,5.42,2.43
1989-08-27T00:45:42.290 ,1989-08-27 00:46:29.480 ,6,-1,342.,61.3,139.,31.9,33.6,10.6,36.4,11.5,3.25,1.88
1989-08-27T00:46:30.290 ,1989-08-27 00:47:17.480 ,5,-1,291.,57.0,114.,29.4,42.8,11.9,21.5,8.77,1.89,1.33
1989-08-27T00:47:18.290 ,1989-08-27 00:48:05.480 ,4,-1,149.,36.1,108.,26.1,52.4,13.1,24.2,8.56,7.59,2.87
1989-08-27T00:48:06.290 ,1989-08-27 00:48:53.480 ,3,-1,158.,35.3,146.,29.2,16.4,7.36,32.6,11.5,0.731,0.731
1989-08-27T00:48:54.290 ,1989-08-27 00:49:41.480 ,2,-1,245.,51.0,109.,28.2,33.7,10.6,22.0,8.33,6.15,2.75
1989-08-27T00:49:41.480 ,1989-08-27 00:50:29.850 ,1,-1,380.,89.6,80.2,32.7,29.9,12.2,7.30,5.16,9.30,3.52
1989-08-27T00:50:30.290 ,1989-08-27 00:51:17.480 ,1,1,281.,53.2,145.,31.7,33.7,10.6,17.4,7.79,1.89,1.33
1989-08-27T00:51:18.290 ,1989-08-27 00:52:05.480 ,2,1,212.,43.3,150.,30.7,37.0,11.2,1.80,1.80,7.59,2.87
1989-08-27T00:52:06.290 ,1989-08-27 00:52:53.480 ,3,1,294.,57.6,112.,28.9,30.1,10.0,4.23,2.99,6.99,2.47
1989-08-27T00:52:54.290 ,1989-08-27 00:53:41.480 ,4,1,331.,70.5,55.8,22.8,28.2,9.41,28.7,9.57,7.71,3.15
1989-08-27T00:53:42.290 ,1989-08-27 00:54:29.480 ,5,1,137.,35.3,89.7,24.0,39.5,11.4,12.5,6.24,3.21,1.86
1989-08-27T00:54:30.290 ,1989-08-27 00:55:17.480 ,6,1,213.,45.5,120.,28.4,30.3,10.1,11.8,5.89,4.65,2.32
1989-08-27T00:55:18.290 ,1989-08-27 00:56:05.480 ,7,1,206.,47.2,87.7,25.3,39.1,11.3,37.5,11.3,5.42,2.43
1989-08-27T00:56:06.290 ,1989-08-27 00:57:11.040 ,8,1,242.,39.2,182.,28.7,88.7,14.8,36.8,9.50,6.41,2.42
1989-08-27T00:57:11.100 ,1989-08-27 00:57:41.480 ,8,-1,121.,35.0,173.,36.9,77.6,20.0,49.6,16.5,5.97,2.99
1989-08-27T00:57:42.290 ,1989-08-27 00:58:29.480 ,7,-1,181.,40.5,121.,27.8,36.9,11.1,24.2,8.56,9.30,3.52
1989-08-27T00:58:30.290 ,1989-08-27 00:59:17.480 ,6,-1,199.,48.1,69.4,23.1,23.6,8.90,28.1,9.95,2.56,1.48
1989-08-27T00:59:18.290 ,1989-08-27 00:00:05.480 ,5,-1,204.,44.5,115.,27.8,39.9,11.5,32.5,10.3,6.51,2.66
1989-08-27T01:00:06.290 ,1989-08-27 01:00:53.480 ,4,-1,336.,63.5,109.,29.2,23.5,8.89,18.7,7.07,13.8,4.17
1989-08-27T01:00:54.290 ,1989-08-27 01:01:41.480 ,3,-1,350.,64.0,122.,30.6,46.0,12.3,31.6,9.99,7.59,2.87
1989-08-27T01:01:42.290 ,1989-08-27 01:02:29.480 ,2,-1,291.,60.6,81.7,25.8,56.1,13.2,23.0,8.67,3.77,1.89
1989-08-27T01:02:29.480 ,1989-08-27 01:03:17.850 ,1,-1,524.,98.9,157.,43.5,50.1,15.8,15.2,7.58,15.4,4.45
1989-08-27T01:03:18.290 ,1989-08-27 01:04:05.480 ,1,1,325.,59.3,139.,31.8,33.6,10.6,17.4,7.79,1.89,1.33
1989-08-27T01:04:06.290 ,1989-08-27 01:04:53.480 ,2,1,176.,40.4,111.,27.0,36.7,11.1,20.1,8.22,3.21,1.86
1989-08-27T01:04:54.290 ,1989-08-27 01:05:41.480 ,3,1,247.,50.5,120.,29.1,30.7,10.2,23.0,8.67,4.65,2.32
1989-08-27T01:05:42.290 ,1989-08-27 01:06:29.480 ,4,1,267.,58.2,73.8,24.6,41.0,11.4,12.5,6.24,1.94,1.12
1989-08-27T01:06:30.290 ,1989-08-27 01:07:17.480 ,5,1,177.,40.6,111.,26.8,20.2,8.23,38.9,11.7,4.34,2.17
1989-08-27T01:07:18.290 ,1989-08-27 01:08:05.480 ,6,1,158.,38.3,99.1,25.6,39.7,11.5,36.0,10.4,11.9,3.60
1989-08-27T01:08:06.290 ,1989-08-27 01:08:53.480 ,7,1,225.,48.0,111.,27.8,49.1,12.7,17.7,7.22,6.43,2.62
1989-08-27T01:08:54.290 ,1989-08-27 01:09:59.040 ,8,1,154.,29.1,162.,26.0,77.0,13.8,60.5,12.6,6.41,2.42
1989-08-27T01:09:59.100 ,1989-08-27 01:10:29.480 ,8,-1,246.,59.6,153.,39.6,133.,25.1,43.3,15.3,5.97,2.99
1989-08-27T01:10:30.290 ,1989-08-27 01:11:17.480 ,7,-1,328.,65.5,83.2,26.3,41.7,11.6,22.0,8.33,5.07,2.27
1989-08-27T01:11:18.290 ,1989-08-27 01:12:05.480 ,6,-1,310.,63.2,82.2,26.0,38.5,11.1,19.6,7.39,9.76,3.25
1989-08-27T01:12:06.290 ,1989-08-27 01:12:53.480 ,5,-1,312.,61.2,101.,28.1,51.2,12.8,27.2,9.05,8.28,2.92
1989-08-27T01:12:54.290 ,1989-08-27 01:13:41.480 ,4,-1,265.,52.0,132.,30.2,36.9,11.1,44.2,12.3,5.12,2.09
1989-08-27T01:13:42.290 ,1989-08-27 01:14:29.480 ,3,-1,92.1,26.6,90.9,22.7,42.9,11.9,16.3,7.27,3.21,1.86
1989-08-27T01:14:30.290 ,1989-08-27 01:15:17.480 ,2,-1,301.,59.1,107.,28.7,48.6,12.6,29.7,9.89,5.42,2.43
1989-08-27T01:15:17.480 ,1989-08-27 01:16:05.850 ,1,-1,285.,69.2,114.,36.1,35.3,13.3,17.7,8.84,7.71,3.15
1989-08-27T01:16:06.290 ,1989-08-27 01:16:53.470 ,1,1,332.,60.7,134.,31.5,40.0,11.6,23.6,8.33,9.29,3.28
1989-08-27T01:16:54.290 ,1989-08-27 01:17:41.470 ,2,1,226.,53.3,64.6,22.8,56.4,12.9,31.6,9.99,7.59,2.87
1989-08-27T01:17:42.290 ,1989-08-27 01:18:29.470 ,3,1,137.,34.2,105.,25.5,43.1,12.0,22.0,8.33,5.07,2.27
1989-08-27T01:18:30.290 ,1989-08-27 01:19:17.470 ,4,1,236.,48.2,129.,29.5,37.2,11.2,12.5,6.24,3.21,1.86
1989-08-27T01:19:18.290 ,1989-08-27 01:20:05.470 ,5,1,179.,42.1,95.2,25.4,26.8,9.48,12.5,6.24,3.21,1.86
1989-08-27T01:20:06.290 ,1989-08-27 01:20:53.470 ,6,1,285.,57.0,106.,28.4,26.8,9.48,22.0,8.33,5.07,2.27
1989-08-27T01:20:54.290 ,1989-08-27 01:21:41.470 ,7,1,285.,53.0,155.,32.4,50.5,13.0,14.7,6.59,5.42,2.43
1989-08-27T01:21:42.290 ,1989-08-27 01:22:47.040 ,8,1,187.,34.2,147.,26.0,79.7,13.9,49.6,11.7,2.67,1.34
1989-08-27T01:22:47.100 ,1989-08-27 01:23:17.470 ,8,-1,119.,37.6,118.,32.6,89.7,21.1,56.7,17.9,7.91,3.54
1989-08-27T01:23:18.290 ,1989-08-27 01:24:05.470 ,7,-1,368.,67.1,113.,30.1,37.0,11.2,23.6,8.33,10.9,3.87
1989-08-27T01:24:06.290 ,1989-08-27 01:24:53.470 ,6,-1,206.,47.2,87.7,25.3,26.7,9.43,16.3,7.27,2.56,1.48
1989-08-27T01:24:54.290 ,1989-08-27 01:25:41.470 ,5,-1,159.,37.5,113.,26.6,17.0,7.61,40.6,12.2,3.25,1.88
1989-08-27T01:25:42.290 ,1989-08-27 01:26:29.470 ,4,-1,197.,46.4,81.7,24.6,42.5,11.8,16.6,6.79,9.29,3.28
1989-08-27T01:26:30.290 ,1989-08-27 01:27:17.470 ,3,-1,220.,44.9,143.,30.4,33.9,10.7,28.1,9.95,2.56,1.48
1989-08-27T01:27:18.290 ,1989-08-27 01:28:05.470 ,2,-1,312.,62.5,90.7,27.3,23.6,8.92,8.00,4.62,0.000E+00,0.000E+00
1989-08-27T01:28:05.470 ,1989-08-27 01:28:53.850 ,1,-1,359.,78.2,137.,39.6,25.8,11.5,10.8,6.25,16.0,4.82
1989-08-27T01:28:54.290 ,1989-08-27 01:29:41.470 ,1,1,488.,79.2,131.,32.8,23.8,8.98,24.1,9.11,3.21,1.86
1989-08-27T01:29:42.290 ,1989-08-27 01:30:29.470 ,2,1,159.,38.5,98.5,25.4,36.6,11.0,34.7,9.62,1.08,1.08
1989-08-27T01:30:30.290 ,1989-08-27 01:31:17.470 ,3,1,191.,42.6,112.,27.2,26.9,9.52,11.8,5.89,4.65,2.32
1989-08-27T01:31:18.290 ,1989-08-27 01:32:05.470 ,4,1,238.,50.7,102.,27.3,40.2,11.6,28.1,9.95,2.19,1.27
1989-08-27T01:32:06.290 ,1989-08-27 01:32:53.470 ,5,1,269.,54.9,105.,28.0,36.7,11.1,33.6,10.6,5.42,2.43
1989-08-27T01:32:54.290 ,1989-08-27 01:33:41.470 ,6,1,186.,40.5,132.,28.7,37.0,11.1,10.1,5.06,10.9,3.87
1989-08-27T01:33:42.290 ,1989-08-27 01:34:29.470 ,7,1,254.,49.7,141.,30.8,20.3,8.27,23.0,8.67,4.65,2.32
1989-08-27T01:34:30.290 ,1989-08-27 01:35:35.040 ,8,1,250.,41.1,162.,27.8,86.6,14.4,63.5,13.0,6.21,2.35
1989-08-27T01:35:35.100 ,1989-08-27 01:36:05.470 ,8,-1,249.,57.2,196.,43.9,78.4,20.2,45.2,16.0,4.18,2.42
1989-08-27T01:36:06.290 ,1989-08-27 01:36:53.470 ,7,-1,395.,70.9,109.,30.1,33.2,10.5,6.35,3.67,15.4,4.45
1989-08-27T01:36:54.290 ,1989-08-27 01:37:41.470 ,6,-1,118.,29.4,128.,26.7,26.9,9.51,7.06,4.08,9.29,3.28
1989-08-27T01:37:42.290 ,1989-08-27 01:38:29.470 ,5,-1,247.,51.4,108.,27.8,39.7,11.4,24.2,8.56,7.59,2.87
1989-08-27T01:38:30.290 ,1989-08-27 01:39:17.470 ,4,-1,190.,44.7,86.7,25.0,30.4,10.1,20.1,8.22,2.56,1.48
1989-08-27T01:39:18.290 ,1989-08-27 01:40:05.470 ,3,-1,167.,39.4,105.,26.2,13.6,6.78,8.84,5.10,2.56,1.48
1989-08-27T01:40:06.290 ,1989-08-27 01:40:53.470 ,2,-1,206.,47.2,87.7,25.3,48.0,12.4,29.9,10.6,2.17,1.53
1989-08-27T01:40:53.470 ,1989-08-27 01:41:41.850 ,1,-1,331.,70.6,175.,42.5,35.7,13.5,39.2,13.9,9.30,3.52
1989-08-27T01:41:42.290 ,1989-08-27 01:42:29.470 ,1,1,620.,98.0,95.2,30.1,32.6,10.3,21.3,8.04,6.43,2.62
1989-08-27T01:42:30.290 ,1989-08-27 01:43:17.470 ,2,1,150.,36.4,107.,25.8,36.7,11.1,13.7,6.13,9.30,3.52
1989-08-27T01:43:18.290 ,1989-08-27 01:44:05.470 ,3,1,177.,39.5,125.,28.0,46.6,12.5,18.3,7.49,5.07,2.27
1989-08-27T01:44:06.290 ,1989-08-27 01:44:53.470 ,4,1,226.,47.1,124.,29.1,43.2,12.0,33.6,10.6,6.15,2.75
1989-08-27T01:44:54.290 ,1989-08-27 01:45:41.470 ,5,1,142.,34.4,115.,26.5,30.5,10.2,7.30,4.22,9.30,3.52
1989-08-27T01:45:42.290 ,1989-08-27 01:46:29.470 ,6,1,199.,48.3,69.0,23.0,20.0,8.17,17.1,6.99,7.59,2.87
1989-08-27T01:46:30.290 ,1989-08-27 01:47:17.470 ,7,1,254.,53.0,103.,27.5,42.6,11.8,38.5,12.2,2.17,1.53
1989-08-27T01:47:18.290 ,1989-08-27 01:48:23.040 ,8,1,248.,38.3,222.,31.0,65.3,12.8,43.6,10.3,7.99,2.66
1989-08-27T01:48:23.100 ,1989-08-27 01:48:53.470 ,8,-1,201.,55.8,106.,33.5,52.5,16.6,23.9,12.0,1.39,1.39
1989-08-27T01:48:54.290 ,1989-08-27 01:49:41.470 ,7,-1,254.,58.4,60.7,22.9,37.1,10.7,32.0,9.24,0.540,0.540
1989-08-27T01:49:42.290 ,1989-08-27 01:50:29.470 ,6,-1,239.,49.8,113.,28.4,36.7,11.0,12.2,6.08,3.77,1.89
1989-08-27T01:50:30.290 ,1989-08-27 01:51:17.470 ,5,-1,246.,52.5,96.4,26.7,33.4,10.6,27.2,9.05,8.68,3.07
1989-08-27T01:51:18.290 ,1989-08-27 01:52:05.470 ,4,-1,206.,46.2,99.6,26.6,36.4,11.0,10.4,5.22,7.59,2.87
1989-08-27T01:52:06.290 ,1989-08-27 01:52:53.470 ,3,-1,288.,54.3,141.,31.4,40.2,11.6,28.7,9.57,7.71,3.15
1989-08-27T01:52:54.290 ,1989-08-27 01:53:41.470 ,2,-1,195.,40.7,152.,30.5,44.1,12.2,13.4,6.71,1.89,1.33
1989-08-27T01:53:41.470 ,1989-08-27 01:54:29.850 ,1,-1,347.,77.6,127.,38.3,40.2,14.2,23.9,10.7,5.42,2.43
1989-08-27T01:54:30.290 ,1989-08-27 01:55:17.470 ,1,1,364.,64.4,136.,32.1,40.0,11.6,40.6,12.2,3.21,1.86
1989-08-27T01:55:18.280 ,1989-08-27 01:56:05.470 ,2,1,145.,36.3,96.6,24.9,33.9,10.7,19.1,7.22,12.3,3.89
1989-08-27T01:56:06.280 ,1989-08-27 01:56:53.470 ,3,1,333.,65.4,90.0,27.1,20.1,8.22,28.7,9.57,6.43,2.62
1989-08-27T01:56:54.280 ,1989-08-27 01:57:41.470 ,4,1,112.,28.9,118.,25.7,47.1,12.6,16.3,7.27,3.21,1.86
1989-08-27T01:57:42.280 ,1989-08-27 01:58:29.470 ,5,1,360.,70.6,78.0,26.0,46.4,12.0,34.2,11.4,1.89,1.33
1989-08-27T01:58:30.280 ,1989-08-27 01:59:17.470 ,6,1,231.,47.1,133.,29.7,40.2,11.6,10.4,5.22,9.30,3.52
1989-08-27T01:59:18.280 ,1989-08-27 01:00:05.470 ,7,1,222.,48.5,101.,26.9,39.8,11.5,4.10,2.90,12.6,4.20
1989-08-27T02:00:06.280 ,1989-08-27 02:01:11.030 ,8,1,244.,40.1,168.,28.0,73.0,13.3,68.5,13.4,7.99,2.66
1989-08-27T02:01:11.100 ,1989-08-27 02:01:41.470 ,8,-1,496.,101.,121.,40.2,54.8,16.5,95.7,23.9,5.97,2.99
1989-08-27T02:01:42.280 ,1989-08-27 02:02:29.470 ,7,-1,241.,49.2,125.,29.4,56.1,13.6,16.6,6.79,8.68,3.07
1989-08-27T02:02:30.280 ,1989-08-27 02:03:17.470 ,6,-1,262.,54.7,97.7,27.1,36.2,10.9,21.3,8.04,6.51,2.66
1989-08-27T02:03:18.280 ,1989-08-27 02:04:05.470 ,5,-1,247.,50.5,120.,29.1,36.7,11.1,18.3,7.49,5.42,2.43
1989-08-27T02:04:06.280 ,1989-08-27 02:04:53.470 ,4,-1,171.,39.2,116.,27.4,46.4,12.4,28.4,8.97,15.4,4.45
1989-08-27T02:04:54.280 ,1989-08-27 02:05:41.470 ,3,-1,217.,46.3,117.,28.4,23.8,8.98,28.1,10.6,1.08,1.08
1989-08-27T02:05:42.280 ,1989-08-27 02:06:29.470 ,2,-1,150.,37.6,91.7,24.5,42.6,11.8,12.5,6.24,3.25,1.88
1989-08-27T02:06:29.470 ,1989-08-27 02:07:17.850 ,1,-1,451.,92.1,133.,40.1,30.5,12.4,33.5,12.7,6.95,2.62
1989-08-27T02:07:18.280 ,1989-08-27 02:08:05.470 ,1,1,456.,81.9,82.3,27.4,41.0,11.4,22.0,8.33,5.07,2.27
1989-08-27T02:08:06.280 ,1989-08-27 02:08:53.470 ,2,1,116.,31.0,95.8,24.0,33.4,10.6,13.7,6.13,7.59,2.87
1989-08-27T02:08:54.280 ,1989-08-27 02:09:41.470 ,3,1,234.,47.8,130.,29.8,36.9,11.1,9.57,5.52,1.89,1.33
1989-08-27T02:09:42.280 ,1989-08-27 02:10:29.470 ,4,1,204.,44.5,115.,27.8,30.2,10.1,29.9,10.6,2.17,1.53
1989-08-27T02:10:30.280 ,1989-08-27 02:11:17.470 ,5,1,298.,60.9,88.0,26.5,47.5,12.3,21.3,8.04,6.51,2.66
1989-08-27T02:11:18.280 ,1989-08-27 02:12:05.470 ,6,1,278.,50.8,175.,33.7,79.5,16.2,30.8,10.3,4.34,2.17
1989-08-27T02:12:06.280 ,1989-08-27 02:12:53.470 ,7,1,338.,65.1,97.4,28.1,26.9,9.51,21.5,8.77,2.17,1.53
1989-08-27T02:12:54.280 ,1989-08-27 02:13:59.030 ,8,1,203.,35.8,154.,26.4,100.,15.5,65.3,13.1,7.10,2.51
1989-08-27T02:13:59.100 ,1989-08-27 02:14:29.470 ,8,-1,81.3,27.1,148.,33.1,83.2,20.8,67.9,18.8,11.2,3.94
1989-08-27T02:14:30.280 ,1989-08-27 02:15:17.470 ,7,-1,301.,57.8,119.,29.8,33.4,10.6,4.57,3.23,6.51,2.66
1989-08-27T02:15:18.280 ,1989-08-27 02:16:05.470 ,6,-1,214.,47.9,94.1,26.1,16.8,7.53,19.1,7.22,10.8,3.43
1989-08-27T02:16:06.280 ,1989-08-27 02:16:53.470 ,5,-1,393.,69.4,120.,31.0,33.4,10.5,19.1,7.81,4.34,2.17
1989-08-27T02:16:54.280 ,1989-08-27 02:17:41.470 ,4,-1,404.,73.7,94.9,28.6,41.8,11.6,33.7,10.2,12.6,4.20
1989-08-27T02:17:42.280 ,1989-08-27 02:18:29.470 ,3,-1,177.,38.6,141.,29.3,43.6,12.1,37.5,11.3,5.42,2.43
1989-08-27T02:18:30.280 ,1989-08-27 02:19:17.470 ,2,-1,257.,50.5,138.,30.9,52.9,13.2,4.57,3.23,5.12,2.09
1989-08-27T02:19:17.470 ,1989-08-27 02:20:05.850 ,1,-1,563.,113.,98.1,37.1,34.9,13.2,12.1,6.96,9.30,3.52
1989-08-27T02:20:06.280 ,1989-08-27 02:20:53.470 ,1,1,292.,56.2,125.,30.3,40.0,11.5,7.30,4.22,7.59,2.87
1989-08-27T02:20:54.280 ,1989-08-27 02:21:41.470 ,2,1,261.,52.3,122.,29.6,49.7,12.8,20.1,8.22,3.25,1.88
1989-08-27T02:21:42.280 ,1989-08-27 02:22:29.470 ,3,1,336.,58.5,168.,34.2,62.9,14.4,25.8,9.12,6.15,2.75
1989-08-27T02:22:30.280 ,1989-08-27 02:23:17.470 ,4,1,150.,37.5,92.2,24.6,65.9,14.4,23.6,8.33,9.29,3.28
1989-08-27T02:23:18.280 ,1989-08-27 02:24:05.470 ,5,1,208.,42.4,155.,30.9,44.4,12.3,26.9,9.49,4.65,2.32
1989-08-27T02:24:06.280 ,1989-08-27 02:24:53.470 ,6,1,137.,34.2,105.,25.5,20.3,8.31,4.57,3.23,7.71,3.15
1989-08-27T02:24:54.280 ,1989-08-27 02:25:41.470 ,7,1,228.,47.4,122.,28.8,49.5,12.8,8.84,5.10,3.21,1.86
1989-08-27T02:25:42.280 ,1989-08-27 02:26:47.030 ,8,1,255.,42.4,148.,27.0,54.9,11.7,71.2,14.0,4.63,1.89
1989-08-27T02:26:47.090 ,1989-08-27 02:27:17.470 ,8,-1,403.,83.9,155.,42.8,47.2,15.7,69.0,19.9,5.58,2.79
1989-08-27T02:27:18.280 ,1989-08-27 02:28:05.470 ,7,-1,154.,36.4,118.,27.0,43.7,12.1,15.4,6.89,3.77,1.89
1989-08-27T02:28:06.280 ,1989-08-27 02:28:53.470 ,6,-1,206.,42.9,141.,30.2,30.3,10.1,13.3,5.95,10.9,3.87
1989-08-27T02:28:54.280 ,1989-08-27 02:29:41.470 ,5,-1,125.,32.2,102.,24.8,36.7,11.1,21.5,8.77,2.17,1.53
1989-08-27T02:29:42.280 ,1989-08-27 02:30:29.470 ,4,-1,254.,53.0,103.,27.5,42.6,11.8,25.7,9.70,1.46,1.03
1989-08-27T02:30:30.280 ,1989-08-27 02:31:17.470 ,3,-1,163.,38.3,109.,26.5,30.2,10.1,8.32,4.80,4.65,2.32
1989-08-27T02:31:18.280 ,1989-08-27 02:32:05.470 ,2,-1,418.,77.6,80.4,26.8,29.3,9.77,10.8,5.40,6.51,2.66
1989-08-27T02:32:05.470 ,1989-08-27 02:32:53.840 ,1,-1,430.,91.7,114.,37.9,48.9,15.5,25.4,10.4,11.5,3.46
1989-08-27T02:32:54.280 ,1989-08-27 02:33:41.470 ,1,1,649.,95.6,133.,34.3,58.2,13.7,28.7,9.57,7.71,3.15
1989-08-27T02:33:42.280 ,1989-08-27 02:34:29.470 ,2,1,232.,49.3,106.,27.5,61.1,14.0,21.3,8.04,6.51,2.66
1989-08-27T02:34:30.280 ,1989-08-27 02:35:17.470 ,3,1,142.,36.6,85.4,23.7,42.3,11.7,28.1,9.95,3.21,1.86
1989-08-27T02:35:18.280 ,1989-08-27 02:36:05.470 ,4,1,109.,28.2,122.,25.9,43.6,12.1,20.1,8.22,2.56,1.48
1989-08-27T02:36:06.280 ,1989-08-27 02:36:53.470 ,5,1,164.,36.8,138.,28.8,37.0,11.2,16.6,6.79,10.9,3.87
1989-08-27T02:36:54.280 ,1989-08-27 02:37:41.470 ,6,1,263.,56.1,86.3,26.0,47.9,12.4,17.1,6.99,7.59,2.87
1989-08-27T02:37:42.280 ,1989-08-27 02:38:29.470 ,7,1,264.,51.8,133.,30.4,49.7,12.8,7.91,4.57,5.42,2.43
1989-08-27T02:38:30.280 ,1989-08-27 02:39:35.030 ,8,1,275.,43.0,182.,29.5,76.4,13.9,42.1,9.92,9.76,2.94
1989-08-27T02:39:35.090 ,1989-08-27 02:40:05.470 ,8,-1,332.,74.2,147.,40.7,57.8,17.4,37.4,12.5,0.939,0.939
1989-08-27T02:40:06.280 ,1989-08-27 02:40:53.470 ,7,-1,366.,65.7,124.,31.1,23.8,8.98,10.1,5.06,8.68,3.07
1989-08-27T02:40:54.280 ,1989-08-27 02:41:41.470 ,6,-1,251.,50.1,130.,29.9,52.7,13.2,21.3,8.04,7.71,3.15
1989-08-27T02:41:42.280 ,1989-08-27 02:42:29.470 ,5,-1,189.,42.3,114.,27.6,34.1,10.8,18.3,7.49,5.07,2.27
1989-08-27T02:42:30.280 ,1989-08-27 02:43:17.470 ,4,-1,175.,40.2,112.,27.1,52.8,13.2,19.1,7.22,14.3,4.51
1989-08-27T02:43:18.280 ,1989-08-27 02:44:05.470 ,3,-1,230.,49.0,108.,27.8,51.9,13.0,7.30,4.22,9.30,3.52
1989-08-27T02:44:06.280 ,1989-08-27 02:44:53.470 ,2,-1,146.,35.3,111.,26.2,33.8,10.7,13.7,6.13,9.30,3.52
1989-08-27T02:44:53.470 ,1989-08-27 02:45:41.840 ,1,-1,446.,91.1,136.,40.9,49.7,15.7,50.0,15.8,7.71,3.15
1989-08-27T02:45:42.280 ,1989-08-27 02:46:29.470 ,1,1,382.,72.1,86.4,27.3,49.8,12.5,17.7,7.22,5.66,2.31
1989-08-27T02:46:30.280 ,1989-08-27 02:47:17.470 ,2,1,469.,77.1,131.,32.7,36.7,11.0,2.95,2.95,1.08,1.08
1989-08-27T02:47:18.280 ,1989-08-27 02:47:35.030 ,3,1,435.,126.,116.,51.7,77.5,25.8,38.7,19.4,4.88,4.88
1989-08-27T02:47:35.090 ,1989-08-27 02:47:59.090 ,9,0,131.,46.4,120.,38.0,20.8,12.0,20.1,11.6,3.40,2.40
1989-08-27T02:48:53.090 ,1989-08-27 02:49:17.090 ,9,0,323.,122.,122.,60.9,40.5,23.4,41.2,23.8,9.76,5.64
1989-08-27T02:49:11.090 ,1989-08-27 02:49:35.090 ,9,0,214.,71.3,78.2,35.0,33.7,15.1,26.3,13.1,5.86,3.38
1989-08-27T02:49:35.090 ,1989-08-27 02:49:41.470 ,5,1,177.,125.,57.5,57.5,0.000E+00,0.000E+00,22.3,22.3,9.76,6.90
1989-08-27T02:49:42.280 ,1989-08-27 02:50:29.470 ,6,1,158.,37.3,113.,26.7,43.2,12.0,14.2,6.34,7.71,3.15
1989-08-27T02:50:30.280 ,1989-08-27 02:51:17.470 ,7,1,142.,36.6,85.4,23.7,39.9,11.5,25.0,8.82,6.43,2.62